PulseSat

PulseSat

COSMOS 2501 (702K)

Last updated on Jan. 18, 2019, 3 a.m. UTC

1 40315U 14075A   19017.33177389  .00000007  00000-0  00000+0 0  9995
2 40315  64.1157 285.0018 0015205 210.2228 243.0715  2.13098468 32157
UTC
Height (km)
Latitude
Longitude
Inclination
Orbital Period

Next 30 passes for location: Hong Kong

Rise time Rise Azimuth (degrees) Set time Set Azimuth (degrees) Duration Max altitude (degrees)

No matching passes for this satellites

PulseSat

PulseSat is the new satellites software and hardware trackering solution by Pulsely.
Satellite Two Line Element Set source: US Air Force Space Command

Download PulseSat for iOS
© 2017 Pulsely Limited